Location: Poughquag
(41.6090°N, 73.6820°W)
Time: 12:19:38
(UTC-04:00)

A-11 Canister half - Pass Details

Date: 31 May 2020
Orbit: 1527 x 1682 km, 47.3° (Epoch: 06 July)

Event Time Altitude Azimuth Distance (km) Brightness Sun altitude
Rises 06:23:08 0° 203° (SSW) 4,671 11.1 9.2°
Reaches altitude 10° 06:26:31 10° 194° (SSW) 3,685 10.7 9.8°
Maximum altitude 06:34:35 35° 133° (SE) 2,275 10.4 11.2°
Drops below altitude 10° 06:42:44 10° 72° (ENE) 3,723 14.9 12.7°
Sets 06:46:08 0° 64° (ENE) 4,725 13.5 13.3°
